Location: Tamazert
(32.6352°N, 5.2072°W)
Time: 03:28:34
(UTC+00:00)

Tiros 1 despin weight - Pass Details

Date: 12 October 2022
Orbit: 590 x 637 km, 48.2° (Epoch: 30 November)

Event Time Altitude Azimuth Distance (km) Brightness Sun altitude
Rises 14:04:10 0° 285° (WNW) 2,819 ? 41.1°
Reaches altitude 10° 14:07:25 10° 311° (NW) 1,925 ? 40.7°
Maximum altitude 14:09:50 14° 344° (NNW) 1,666 ? 40.4°
Drops below altitude 10° 14:12:16 10° 18° (NNE) 1,940 ? 40.0°
Sets 14:15:34 0° 43° (NE) 2,855 ? 39.6°
